Location: Unspecified
(39.4628°N, 0.0000°E)
Time: 20:11:28
(UTC+00:00)

Vanguard 1 Rocket - Visible Passes

Search period start: 04 April 2026 00:00
Search period end: 14 April 2026 00:00
Orbit: 654 x 4213 km, 34.3° (Epoch: 28 March)

Date Brightness Start Highest point End Pass type
(mag) Time Alt. Az. Time Alt. Az. Time Alt. Az.
4 Apr 9.6 01:20:32 51° SE 01:20:32 51° SE 01:28:40 10° E visible
4 Apr 8.7 03:37:39 30° WSW 03:45:15 67° S 03:52:54 10° ESE visible
4 Apr 11.4 21:16:40 10° S 21:21:01 15° S 21:21:01 15° S visible
5 Apr 10.3 00:11:31 28° ESE 00:11:31 28° ESE 00:16:13 10° E visible
5 Apr 9.1 02:28:37 56° SW 02:31:52 68° S 02:41:14 10° E visible
5 Apr 8.5 04:46:05 10° W 04:58:21 56° SSW 05:04:48 10° ESE visible
5 Apr 11.4 20:08:35 10° SSE 20:13:38 13° SSE 20:13:38 13° SSE visible
5 Apr 11.0 22:26:40 10° SSW 23:02:26 12° E 23:03:02 10° E visible
6 Apr 9.5 01:19:31 60° SE 01:19:31 60° SE 01:29:16 10° E visible
6 Apr 8.8 03:36:37 27° W 03:45:36 67° S 03:53:29 10° ESE visible
6 Apr 11.2 21:13:41 10° S 21:23:46 23° S 21:23:46 23° S visible
6 Apr 10.2 23:40:07 10° SW 00:10:22 37° ESE 00:16:52 10° E visible
7 Apr 9.1 02:27:26 51° WSW 02:32:08 70° S 02:41:50 10° E visible
7 Apr 8.7 04:46:04 10° W 04:58:37 51° SSW 05:05:15 10° SE visible
7 Apr 11.1 20:03:17 10° S 20:16:51 19° SE 20:16:51 19° SE visible
7 Apr 10.8 22:24:59 10° SW 23:01:06 18° E 23:03:49 10° E visible
8 Apr 9.5 01:18:10 68° SSE 01:18:10 68° SSE 01:29:50 10° E visible
8 Apr 8.9 03:35:14 23° W 03:45:53 65° SSW 03:54:02 10° ESE visible
8 Apr 10.8 21:11:23 10° SSW 21:51:43 - E 21:27:35 33° SSE visible
8 Apr 10.0 23:39:08 10° SW 00:08:47 47° ESE 00:17:26 10° E visible
9 Apr 9.2 02:25:50 44° WSW 02:32:24 71° S 02:42:24 10° ESE visible
9 Apr 8.9 04:46:04 10° W 04:58:45 45° SSW 05:05:35 10° SE visible
9 Apr 10.9 19:59:48 10° S 20:17:56 25° SE 20:21:19 24° SE visible
9 Apr 10.6 22:23:39 10° SW 22:59:12 27° E 23:04:25 10° E visible
10 Apr 9.5 00:55:09 10° WSW 01:18:08 71° S 01:30:23 10° E visible
10 Apr 9.0 03:33:16 18° W 03:46:06 61° SSW 03:54:30 10° ESE visible
10 Apr 11.3 18:52:08 10° SSE 19:03:16 15° SE 19:14:07 10° ESE visible
10 Apr 10.5 21:09:34 10° SSW 21:32:34 42° SE 21:50:34 10° E visible
10 Apr 9.9 23:38:22 10° WSW 00:06:19 61° SE 00:17:56 10° E visible
11 Apr 9.3 02:23:17 36° W 02:32:36 71° S 02:42:56 10° ESE visible
11 Apr 9.1 04:46:05 10° W 04:58:47 40° SW 05:05:48 10° SSE visible
11 Apr 10.9 19:57:14 10° S 20:17:19 31° SE 20:28:05 22° ESE visible
11 Apr 10.2 22:22:35 10° SW 22:55:39 42° ESE 23:04:56 10° E visible
12 Apr 9.6 00:54:44 10° WSW 01:18:15 74° S 01:30:54 10° E visible
12 Apr 9.1 03:29:16 10° W 03:46:13 57° SSW 03:54:55 10° SE visible
12 Apr 11.2 18:47:31 10° SSE 19:02:34 20° SE 19:17:27 10° E visible
12 Apr 10.5 21:08:10 10° SSW 21:32:04 48° SSE 21:51:09 10° E visible
12 Apr 9.9 23:37:47 10° WSW 00:03:08 71° S 00:18:25 10° E visible
13 Apr 9.3 02:11:51 10° W 02:32:45 69° SSW 02:43:25 10° ESE visible
13 Apr 9.3 04:46:10 10° W 04:58:39 34° SW 05:05:50 10° SSE visible
13 Apr 10.8 19:55:18 10° SSW 20:16:37 37° SE 20:36:13 10° E visible
13 Apr 10.2 22:21:47 10° SW 22:47:27 64° SSE 23:05:22 10° E visible
